Flag for U.S.A. Weather past 2 weeks in Corpus Christi, Texas, U.S.A.

Now
76 °F

Passing clouds.


Feels Like: 76 °F
Forecast: 76 / 96 °F
Wind: 3 mph from North

Location: Corpus Christi International Airport

Current Time: Aug 1, 2015 at 9:11:24 AM

Latest Report: Aug 1, 2015 at 7:51 AM


Visibility: 8 mi

Pressure: 29.95 "Hg

Humidity: 91%

Dew point: 73 °F

Location of Corpus ChristiLocation

Historic Weather in Corpus Christi — Graph

°F

Corpus Christi temperature yesterday

Maximum temperature yesterday: 99 °F (at 1:51 PM)
Minimum temperature yesterday: 76 °F (at 5:51 AM)
Average temperature yesterday: 84 °F

Past Weeks' High & Low Weather Summary

 TemperatureHumidityPressure
High99 °F (Jul 31, 1:51 PM)97% (Jul 30, 6:51 AM)30.07 "Hg (Jul 30, 6:51 AM)
Low70 °F (Jul 30, 4:51 AM)26% (Jul 30, 4:51 PM)29.82 "Hg (Jul 21, 6:51 PM)
Average86 °F72%29.94 "Hg
* Reported Jul 17 7:51 AM — Aug 1 7:51 AM, Corpus Christi, Weather by CustomWeather, © 2015

Note: Actual official high and low records may vary slightly from our data, if they occured in-between our weather recording intervals... More about our weather records

Advertising

Corpus Christi weather history for previous 24 hours

 ConditionsComfort  
Time TempWeatherWind HumidityBarometerVisibility
7:51 AM
Sat, Aug 1
76 °FPassing clouds.3 mph91%29.95 "Hg8 mi
6:51 AM76 °FPassing clouds.6 mph91%29.94 "Hg10 mi
5:51 AM76 °FOvercast.3 mph91%29.93 "Hg10 mi
4:51 AM76 °FOvercast.No wind91%29.92 "Hg10 mi
3:51 AM77 °FOvercast.No wind90%29.93 "Hg10 mi
2:51 AM78 °FPassing clouds.3 mph87%29.95 "Hg10 mi
1:51 AM78 °FOvercast.3 mph87%29.95 "Hg10 mi
12:51 AM77 °FOvercast.3 mph90%29.96 "Hg10 mi
11:51 PM
Fri, Jul 31
79 °FMostly cloudy.No wind84%29.96 "Hg10 mi
10:51 PM78 °FMostly cloudy.No wind87%29.97 "Hg10 mi
9:51 PM78 °FOvercast.No wind84%29.95 "Hg10 mi
8:51 PM79 °FLight rain. Mostly cloudy.9 mph84%29.94 "Hg10 mi
7:51 PM78 °FThunderstorms. Cloudy.No wind87%29.93 "Hg10 mi
6:51 PM83 °FLight rain. Cloudy.18 mph63%29.96 "Hg2 mi
5:51 PM91 °FBroken clouds.8 mph50%29.92 "Hg10 mi
4:51 PM89 °FThunderstorms. Broken clouds.17 mph55%29.94 "Hg10 mi
3:51 PM98 °FThunderstorms. Broken clouds.7 mph39%29.93 "Hg10 mi
2:51 PM99 °FBroken clouds.8 mph38%29.95 "Hg10 mi
1:51 PM99 °FPartly sunny.9 mph37%29.97 "Hg10 mi
12:51 PM96 °FPartly sunny.5 mph38%29.98 "Hg10 mi
11:51 AM94 °FBroken clouds.6 mph43%30.01 "Hg10 mi
10:51 AM91 °FBroken clouds.5 mph54%30.02 "Hg10 mi
9:51 AM86 °FBroken clouds.7 mph67%30.02 "Hg10 mi
Weather by CustomWeather, © 2015

See weather overviewHow to use our weather pages